Regional Weather Roundup
Issued by NWS Cleveland, OH

Home | Current Version | Previous Version | Graphics & Text | Print | Product List | Glossary On
Versions: 1 2 3 4 5 6 7 8 9 10 11 12 13 14 15 16 17 18 19 20 21 22 23 24 25 26 27 28 29 30 31 32 33 34 35 36 37 38 39 40 41 42 43 44 45 46 47 48 49 50
000
ASUS41 KCLE 251702
RWRCLE
OHIO REGIONAL WEATHER ROUNDUP
NATIONAL WEATHER SERVICE CLEVELAND, OH
100 PM EDT THU AUG 25 2016

NOTE: "FAIR" INDICATES FEW OR NO CLOUDS BELOW 12,000 FEET WITH NO
SIGNIFICANT WEATHER AND/OR OBSTRUCTIONS TO VISIBILITY.

OHZ001>008-015>018-024>027-034-035-043-044-251800-
   NORTHWEST OHIO

CITY           SKY/WX    TMP DP  RH WIND       PRES   REMARKS
DEFIANCE       MOSUNNY   84  70  62 SW10      30.02F
FINDLAY        SUNNY     87  70  56 SW15      30.02F HX  92
TOLEDO EXPRESS MOSUNNY   83  73  72 SW12      30.00F
TOLEDO EXEC    MOSUNNY   85  74  69 SW15      30.00F HX  92
LIMA           MOSUNNY   85  75  72 W9        30.05R HX  93
$$

OHZ009>014-019>023-028>033-038-089-251800-
   NORTHEAST OHIO

CITY           SKY/WX    TMP DP  RH WIND       PRES   REMARKS
CLE-HOPKINS    PTSUNNY   85  71  63 S7        30.04F HX  90
CLE-LAKEFRONT  MOSUNNY   86  71  60 SW14      30.00F HX  91
CUY CO. ARPT   PTSUNNY   84  73  70 SW12      30.03F HX  91
LORAIN-ELYRIA  MOSUNNY   83  72  69 SW10      30.02F
ASHTABULA      MOSUNNY   82  75  79 SW8       30.04S
AKRON-CANTON   PTSUNNY   84  70  62 SW7       30.06F
WOOSTER        MOSUNNY   83  73  72 SW7       30.06F
MANSFIELD      SUNNY     86  73  65 S10       30.06F HX  93
YOUNGSTOWN     PTSUNNY   82  71  69 S7        30.06F
$$

OHZ042-051>053-060>062-070>072-077>081-251800-
  SOUTHWEST OHIO

CITY           SKY/WX    TMP DP  RH WIND       PRES   REMARKS
CINC-COVINGTON MOSUNNY   86  77  74 W10       30.10S HX  97
CINC-LUNKEN    PTSUNNY   86  77  74 W9        30.08F HX  97
HAMILTON       CLOUDY    86  75  69 SW9G17    30.09S HX  95
DAYTON         MOSUNNY   85  75  72 S14       30.08F HX  93
WRIGHT-PAT AFB NOT AVBL
DAYTON GENERAL PTSUNNY   83  74  74 SW9       30.09R
WILMINGTON     CLOUDY    83  76  79 SW12      30.10R HX  91
$$

OHZ036-037-039>041-045>050-054>059-063>069-073>076-082>088-251800-
  CENTRAL AND SOUTHEAST OHIO

CITY           SKY/WX    TMP DP  RH WIND       PRES   REMARKS
COLUMBUS       MOSUNNY   84  74  71 SW12      30.07R HX  91
OSU AIRPORT    PTSUNNY   85  75  72 SW9       30.07S HX  93
BOLTON FIELD   CLOUDY    84  77  79 SW7       30.09R HX  94
RICKENBACK AFB NOT AVBL
NEWARK         PTSUNNY   84  75  74 SW5       30.07F HX  92
MARION         MOSUNNY   85  73  67 S13       30.05F HX  91
LANCASTER      PTSUNNY   85  77  77 SW7       30.08S HX  95
ZANESVILLE     PTSUNNY   85  73  67 SW8       30.08S HX  91
NEW PHILLY     PTSUNNY   87  70  56 S8        30.07F HX  92
$$




USA.gov is the U.S. government's official web portal to all federal, state and local government web resources and services.